Location: Warwick
(41.7000°N, 71.4170°W)
Time: 02:01:40
(UTC-05:00)

Tiangong 2 - Visible Passes

Search period start: 18 December 2017 00:00
Search period end: 28 December 2017 00:00
Orbit: 386 x 389 km, 42.8° (Epoch: 17 December)

Date Brightness Start Highest point End Pass type
(mag) Time Alt. Az. Time Alt. Az. Time Alt. Az.
21 Dec 2.8 17:59:16 10° SSW 18:01:37 22° SSE 18:01:37 22° SSE visible
22 Dec 3.5 17:01:52 10° S 17:03:33 14° SE 17:05:14 10° ESE visible
22 Dec 3.3 18:36:48 10° WSW 18:38:18 25° SW 18:38:18 25° SW visible
23 Dec 2.0 17:38:33 10° SW 17:41:31 37° SSE 17:42:37 27° ESE visible
24 Dec 1.6 18:16:33 10° WSW 18:19:11 58° WSW 18:19:11 58° WSW visible
25 Dec 1.3 17:18:07 10° WSW 17:21:15 60° SSE 17:23:27 18° E visible
25 Dec 4.1 18:54:55 10° W 18:55:44 17° W 18:55:44 17° W visible
26 Dec 1.0 17:56:21 10° W 17:59:32 76° N 17:59:58 62° NE visible
27 Dec 1.1 16:57:49 10° WSW 17:01:00 87° SSE 17:04:11 10° ENE visible
27 Dec 3.0 18:34:43 10° W 18:36:29 30° WNW 18:36:29 30° WNW visible
